Home > Weather > Cleveland > Past weeks

Flag for USA Past Weather in Cleveland, Ohio, USA — Yesterday and Last 2 Weeks

Now
79 °F

Passing clouds.


Feels Like: 82 °F
Forecast: 79 / 87 °F
Wind: 10 mph from South

Location: Cleveland-Hopkins International Airport

Current Time: Jul 25, 2016 at 12:20:36 AM

Latest Report: Jul 24, 2016 at 11:51 PM


Visibility: 10 mi

Pressure: 29.93 "Hg

Humidity: 77%

Dew Point: 71 °F

Location of ClevelandLocation

Past Weather in Cleveland — Graph

°F

Cleveland Temperature Yesterday

Maximum temperature yesterday: 89 °F (at 10:51 AM)
Minimum temperature yesterday: 73 °F (at 4:51 AM)
Average temperature yesterday: 80 °F

High & Low Weather Summary for the Past Weeks

 TemperatureHumidityPressure
High93 °F (Jul 13, 4:51 PM)88% (Jul 23, 5:51 AM)30.29 "Hg (Jul 23, 5:51 AM)
Low60 °F (Jul 20, 3:51 AM)31% (Jul 20, 4:51 PM)29.84 "Hg (Jul 14, 3:51 AM)
Average79 °F59%30.04 "Hg
* Reported Jul 9 10:51 PM — Jul 24 10:51 PM, Cleveland, Weather by CustomWeather, © 2016

Note: Actual official high and low records may vary slightly from our data, if they occured in-between our weather recording intervals... More about our weather records

Advertising

Cleveland Weather History for the Previous 24 Hours

Scroll right to see more
 ConditionsComfort  
Time TempWeatherWind HumidityBarometerVisibility
10:51 PM
Sun, Jul 24
80 °FPassing clouds.9 mph71%29.95 "Hg10 mi
9:51 PM79 °FPassing clouds.12 mph74%29.95 "Hg10 mi
8:51 PM81 °FPartly sunny.7 mph65%29.96 "Hg10 mi
7:51 PM83 °FBroken clouds.No wind59%29.96 "Hg10 mi
6:51 PM83 °FScattered clouds.8 mph59%29.95 "Hg10 mi
5:51 PM83 °FPartly sunny.6 mph57%29.95 "Hg10 mi
4:51 PM81 °FOvercast.10 mph69%29.97 "Hg10 mi
3:51 PM83 °FMore clouds than sun.13 mph68%29.99 "Hg10 mi
2:51 PM85 °FMostly cloudy.14 mph65%29.99 "Hg10 mi
1:51 PM79 °FMostly cloudy.8 mph77%29.99 "Hg10 mi
12:51 PM79 °FThunderstorms. Cloudy.10 mph69%29.98 "Hg10 mi
11:51 AM87 °FMostly cloudy.7 mph51%29.98 "Hg10 mi
10:51 AM89 °FMostly cloudy.10 mph41%29.98 "Hg10 mi
9:51 AM85 °FCloudy.9 mph40%29.99 "Hg10 mi
8:51 AM82 °FBroken clouds.9 mph46%29.98 "Hg10 mi
7:51 AM78 °FBroken clouds.8 mph54%29.97 "Hg10 mi
6:51 AM75 °FPartly cloudy.6 mph62%29.99 "Hg10 mi
5:51 AM73 °FPassing clouds.3 mph66%29.99 "Hg10 mi
4:51 AM73 °FPassing clouds.No wind64%29.98 "Hg10 mi
3:51 AM75 °FPassing clouds.No wind60%29.98 "Hg10 mi
2:51 AM74 °FPassing clouds.3 mph64%29.99 "Hg10 mi
1:51 AM74 °FPassing clouds.7 mph64%29.99 "Hg10 mi
12:51 AM75 °FPassing clouds.6 mph64%30.00 "Hg10 mi
Weather by CustomWeather, © 2016

See weather overviewHow to use our weather pages